Regional Weather Roundup
Issued by NWS

Home | Current Version | Previous Version | Text Only | Print | Product List | Glossary On
Versions: 1 2 3 4 5 6 7 8 9 10 11 12 13 14 15 16 17 18 19 20 21 22 23 24 25 26 27 28 29 30 31 32 33 34 35 36 37 38 39 40 41 42 43 44 45 46 47 48 49 50
000
ASUS46 KSEW 280010
RWRWA

WASHINGTON REGIONAL WEATHER ROUNDUP
NATIONAL WEATHER SERVICE SEATTLE WA
400 PM PST FRI FEB 27 2015

NOTE:"FAIR" INDICATES FEW OR NO CLOUDS BELOW 12,000 FEET WITH NO
SIGNIFICANT WEATHER AND/OR OBSTRUCTIONS TO VISIBILITY.

WAZ505-507>509-280100-
SEATTLE, TACOMA, EVERETT, AND VICINITY

CITY           SKY/WX    TMP DP  RH WIND       PRES   REMARKS
EVERETT        CLOUDY    49  42  77 N6        29.80R
6HR MIN TEMP:  44; 6HR MAX TEMP:  49; 6HR PCP:  0.04;

BOEING FIELD   CLOUDY    53  44  71 N9        29.78R
6HR MIN TEMP:  50; 6HR MAX TEMP:  54; 6HR PCP: TRACE;

RENTON         CLOUDY    51  28  41 NW12      29.77R
6HR MIN TEMP:  48; 6HR MAX TEMP:  51; 6HR PCP: TRACE;

SEATAC AIRPORT CLOUDY    49  44  83 N14       29.77R
6HR MIN TEMP:  47; 6HR MAX TEMP:  50; 6HR PCP:  0.02;

JBLM-MCCHORD   CLOUDY    48  47  99 N14       29.76R
6HR MIN TEMP:  47; 6HR MAX TEMP:  48; 6HR PCP:  0.13;

PUYALLUP       CLOUDY    48  48 100 N7        29.75R
BREMERTON      CLOUDY    46  43  87 N9G18     29.80S
6HR MIN TEMP:  45; 6HR MAX TEMP:  46; 6HR PCP:  0.09;

JBLM-FT LEWIS  CLOUDY    48  46  93 N8        29.75S
6HR MIN TEMP:  46; 6HR MAX TEMP:  48; 6HR PCP:  0.16;

TACOMA NARROWS CLOUDY    47  44  90 N14       29.77R
6HR MIN TEMP:  46; 6HR MAX TEMP:  48; 6HR PCP:  0.11;

$$

WAZ001-503-506-510-514-515-280100-
NORTH INTERIOR

CITY           SKY/WX    TMP DP  RH WIND       PRES   REMARKS
BELLINGHAM     CLOUDY    53  29  39 N21G35    29.83R
6HR MIN TEMP:  44; 6HR MAX TEMP:  53; 6HR PCP:  0.02;

FRIDAY HARBOR  CLOUDY    50  36  58 N15G23    29.86R
6HR MIN TEMP:  45; 6HR MAX TEMP:  50; 6HR PCP: TRACE;

EASTSOUND      PTSUNNY   48  45  87 CALM      29.84S
PORT ANGELES   LGT RAIN  46  43  89 SE3       29.85R
6HR MIN TEMP:  45; 6HR MAX TEMP:  47; 6HR PCP:  0.24;

NAS WHIDBEY    LGT RAIN  50  42  74 N8        29.84R
6HR MIN TEMP:  47; 6HR MAX TEMP:  51; 6HR PCP:  0.03;

ARLINGTON      CLOUDY    50  43  76 N9        29.83R
6HR MIN TEMP:  45; 6HR MAX TEMP:  52;

BURLINGTON     MOSUNNY   48  46  93 NW6       29.84S
$$

WAZ020-022-039-040-504-511-512-280100-
SOUTHWEST INTERIOR

CITY           SKY/WX    TMP DP  RH WIND       PRES   REMARKS
SHELTON        LGT RAIN  47  41  80 N9G18     29.76R
6HR MIN TEMP:  46; 6HR MAX TEMP:  48; 6HR PCP:  0.01;

OLYMPIA        CLOUDY    48  43  82 N13       29.76R
6HR MIN TEMP:  47; 6HR MAX TEMP:  50;

CHEHALIS       CLOUDY    52  48  87 N12       29.73S
KELSO          CLOUDY    54  43  66 NE8       29.75R
6HR MIN TEMP:  48; 6HR MAX TEMP:  55; 6HR PCP:  0.01;

VANCOUVER      CLOUDY    51  41  68 E13       29.72R
6HR MIN TEMP:  50; 6HR MAX TEMP:  56;

SCAPPOOSE, OR  PTSUNNY   52  44  74 E12       29.71R
6HR MIN TEMP:  49; 6HR MAX TEMP:  54; 6HR PCP:  0.01;

PORTLAND, OR   PTSUNNY   51  43  74 E16       29.72R
6HR MIN TEMP:  49; 6HR MAX TEMP:  57; 6HR PCP: TRACE;

$$

WAZ021-516-517-280100-
WASHINGTON COAST

CITY           SKY/WX    TMP DP  RH WIND       PRES   REMARKS
FORKS          CLOUDY    48  40  73 NE15G30   29.78R
6HR MIN TEMP:  46; 6HR MAX TEMP:  50; 6HR PCP: TRACE;

HOQUIAM        CLOUDY    52  43  71 NE15      29.74R
6HR MIN TEMP:  48; 6HR MAX TEMP:  54; 6HR PCP: TRACE;

ASTORIA, OR    PTSUNNY   50  46  86 N6        29.71S
6HR MIN TEMP:  49; 6HR MAX TEMP:  53; 6HR PCP:  0.14;

$$

WAZ019-023-024-040-518-519-280100-
CASCADE MOUNTAINS AND COLUMBIA GORGE

CITY           SKY/WX    TMP DP  RH WIND       PRES   REMARKS
TROUTDALE, OR  CLOUDY    50  41  71 E15       29.72R
6HR MIN TEMP:  50; 6HR MAX TEMP:  55; 6HR PCP:  0.06;

THE DALLES, OR LGT RAIN  46  42  86 CALM      29.78R
6HR MIN TEMP:  46; 6HR MAX TEMP:  47; 6HR PCP:  0.16;

$$

WAZ026-027-041>044-520-521-280100-
EAST SLOPES

CITY           SKY/WX    TMP DP  RH WIND       PRES   REMARKS
OMAK           CLOUDY    43  31  62 N16G26    29.88R
6HR MIN TEMP:  42; 6HR MAX TEMP:  46; 6HR PCP: TRACE;

WENATCHEE      CLOUDY    45  37  73 W7        29.82S
6HR MIN TEMP:  39; 6HR MAX TEMP:  46; 6HR PCP: TRACE;

ELLENSBURG     CLOUDY    48  34  58 SW5       29.77S
6HR MIN TEMP:  41; 6HR MAX TEMP:  48; 6HR PCP:  0.02;

YAKIMA         CLOUDY    52  31  44 VRB6      29.76R
                                      6HR PCP:  0.09;

$$

WAZ028-034-035-280100-
COLUMBIA BASIN

CITY           SKY/WX    TMP DP  RH WIND       PRES   REMARKS
EPHRATA        CLOUDY    52  27  38 NE18      29.78R
6HR MIN TEMP:  45; 6HR MAX TEMP:  54;

MOSES LAKE     CLOUDY    51  28  41 NE15      29.78R
6HR MIN TEMP:  45; 6HR MAX TEMP:  53;

PASCO          CLOUDY    57  32  38 NE10      29.71S
6HR MIN TEMP:  47; 6HR MAX TEMP:  58;

HERMISTON, OR  CLOUDY    47  42  83 SW10      29.71S
6HR MIN TEMP:  47; 6HR MAX TEMP:  50; 6HR PCP:  0.01;

$$

WAZ036>038-280100-
NORTHEAST WASHINGTON

CITY           SKY/WX    TMP DP  RH WIND       PRES   REMARKS
SPOKANE GEIGER PTSUNNY   48  21  34 NE14G22   29.76S
6HR MIN TEMP:  38; 6HR MAX TEMP:  48;

SPOKANE FELTS  SUNNY     49  20  31 NE13G20   29.78S
6HR MIN TEMP:  43; 6HR MAX TEMP:  51;

FAIRCHILD AFB  MOSUNNY   46  22  39 N14G23    29.76S
6HR MIN TEMP:  39; 6HR MAX TEMP:  47; 6HR PCP: TRACE;

COEURDALENE,ID SUNNY     45  21  39 N18       29.78R
6HR MIN TEMP:  41; 6HR MAX TEMP:  48;

DEER PARK      MOSUNNY   46  21  37 NE15      29.81R
6HR MIN TEMP:  42; 6HR MAX TEMP:  49;

$$

WAZ029>033-280100-
SOUTHEAST WASHINGTON

CITY           SKY/WX    TMP DP  RH WIND       PRES   REMARKS
PULLMAN        PTSUNNY   51  26  37 NE9       29.71F
6HR MIN TEMP:  43; 6HR MAX TEMP:  51;

LEWISTON, ID   PTSUNNY   52  32  46 NE8       29.70S
6HR MIN TEMP:  42; 6HR MAX TEMP:  54;

WALLA WALLA    PTSUNNY   52  38  58 S8        29.68S HAZE
6HR MIN TEMP:  48; 6HR MAX TEMP:  54;

PENDLETON, OR  CLOUDY    46  39  76 W13       29.68S
6HR MIN TEMP:  45; 6HR MAX TEMP:  50; 6HR PCP:  0.01;

$$


USA.gov is the U.S. government's official web portal to all federal, state and local government web resources and services.